Location: Unspecified
(0.0000°N, 0.0000°E)
Time: 17:55:50
(UTC+00:00)

STARLINK 1039 - Pass Details

Date: 24 January 2020
Orbit: 548 x 551 km, 53.0° (Epoch: 17 January)

Event Time Altitude Azimuth Distance (km) Brightness Sun altitude
Exits shadow 04:18:33 12° 34° (NE) 1,682 6.2 -26.6°
Drops below altitude 10° 04:18:52 10° 34° (NE) 1,807 6.4 -26.5°
Sets 04:21:05 0° 34° (NE) 2,697 7.3 -26.0°
